IZ5MMH-14 Weather Reports


time (UTC)temp
C
wind
direction
speed
KPH
gust
KPH
rain 1hr
cm
rain 24hr
cm
rain mn
cm
humidity
%
barometer
mb
20260508024001 16 0.0 0.0 0.00 0.00 0.00 10 1011.2
20260508023001 16 0.0 0.0 0.00 0.00 0.00 10 1011.2
20260508022001 16 0.0 0.0 0.00 0.00 0.00 10 1011.4
20260508021000 16 0.0 0.0 0.00 0.00 0.00 10 1011.3
20260508020000 16 0.0 0.0 0.00 0.00 0.00 10 1011.4
20260508015000 16 0.0 0.0 0.00 0.00 0.00 10 1011.4
20260508014000 16 0.0 0.0 0.00 0.00 0.00 10 1011.6
20260508013001 16 0.0 0.0 0.00 0.00 0.00 10 1011.6
20260508012001 16 0.0 0.0 0.00 0.00 0.00 10 1011.7
20260508011000 16 0.0 0.0 0.00 0.00 0.00 10 1011.8
20260508010001 16 0.0 0.0 0.00 0.00 0.00 10 1011.8
20260508005001 16 0.0 0.0 0.00 0.00 0.00 10 1011.9
20260508004001 16 0.0 0.0 0.00 0.00 0.00 10 1012.1
20260508003001 16 0.0 0.0 0.00 0.00 0.00 10 1012.4
20260508002001 16 0.0 0.0 0.00 0.00 0.00 10 1012.5
20260508001001 16 0.0 0.0 0.00 0.00 0.00 10 1012.6
20260508000000 16 0.0 0.0 0.00 0.00 0.00 10 1012.6
20260507235001 16 0.0 0.0 0.00 0.00 0.00 10 1012.6
20260507234000 17 0.0 0.0 0.00 0.00 0.00 10 1012.9
20260507233001 17 0.0 0.0 0.00 0.00 0.00 10 1012.9
20260507232000 17 0.0 0.0 0.00 0.00 0.00 10 1013.1
20260507231001 17 0.0 0.0 0.00 0.00 0.00 10 1013.1
20260507230000 17 0.0 0.0 0.00 0.00 0.00 10 1013.2
20260507225001 17 0.0 0.0 0.00 0.00 0.00 10 1013.3
20260507224001 17 0.0 0.0 0.00 0.00 0.00 10 1013.4
20260507223001 17 0.0 0.0 0.00 0.00 0.00 10 1013.5
20260507222000 17 0.0 0.0 0.00 0.00 0.00 10 1013.3
20260507220001 17 0.0 0.0 0.00 0.00 0.00 10 1013.3
20260507215001 17 0.0 0.0 0.00 0.00 0.00 10 1013.4
20260507214001 18 0.0 0.0 0.00 0.00 0.00 10 1013.4
20260507213002 18 0.0 0.0 0.00 0.00 0.00 10 1013.3
20260507212001 18 0.0 0.0 0.00 0.00 0.00 10 1013.3
20260507211001 17 0.0 0.0 0.00 0.00 0.00 10 1013.3
20260507210001 17 0.0 0.0 0.00 0.00 0.00 10 1013.3
20260507205001 17 0.0 0.0 0.00 0.00 0.00 10 1013.3
20260507204001 18 0.0 0.0 0.00 0.00 0.00 10 1013.3
20260507203001 18 0.0 0.0 0.00 0.00 0.00 10 1013.3
20260507202001 18 0.0 0.0 0.00 0.00 0.00 10 1013.2
20260507201001 19 0.0 0.0 0.00 0.00 0.00 10 1013.2
20260507200001 20 0.0 0.0 0.00 0.00 0.00 92 1013.2
20260507195001 21 0.0 0.0 0.00 0.00 0.00 94 1013.1
20260507194002 21 0.0 0.0 0.00 0.00 0.00 99 1013.1
20260507193001 21 0.0 0.0 0.00 0.00 0.00 10 1013.1
20260507192001 21 0.0 0.0 0.00 0.00 0.00 98 1013.1
20260507191001 21 0.0 0.0 0.00 0.00 0.00 91 1013.1
20260507190002 20 0.0 0.0 0.00 0.00 0.00 95 1013.0
20260507185001 20 0.0 0.0 0.00 0.00 0.00 96 1013.1
20260507184001 20 0.0 0.0 0.00 0.00 0.00 93 1013.2
20260507183001 21 0.0 0.0 0.00 0.00 0.00 87 1013.1
20260507182001 21 0.0 0.0 0.00 0.00 0.00 92 1013.1
20260507181001 21 0.0 0.0 0.00 0.00 0.00 82 1013.1
20260507180001 21 0.0 0.0 0.00 0.00 0.00 81 1013.2
20260507175001 21 0.0 0.0 0.00 0.00 0.00 80 1013.2
20260507174001 21 0.0 0.0 0.00 0.00 0.00 85 1013.1
20260507173001 21 0.0 0.0 0.00 0.00 0.00 93 1013.1
20260507172001 21 0.0 0.0 0.00 0.00 0.00 87 1013.0
20260507171001 21 0.0 0.0 0.00 0.00 0.00 86 1013.1
20260507170001 21 0.0 0.0 0.00 0.00 0.00 88 1013.0
20260507165001 21 0.0 0.0 0.00 0.00 0.00 94 1013.0
20260507164001 21 0.0 0.0 0.00 0.00 0.00 94 1013.1
20260507163001 21 0.0 0.0 0.00 0.00 0.00 95 1013.0
20260507162001 21 0.0 0.0 0.00 0.00 0.00 95 1012.8
20260507161001 21 0.0 0.0 0.00 0.00 0.00 94 1012.9
20260507160001 21 0.0 0.0 0.00 0.00 0.00 92 1013.0
20260507155001 21 0.0 0.0 0.00 0.00 0.00 91 1013.0
20260507154001 21 0.0 0.0 0.00 0.00 0.00 92 1013.1
20260507153001 21 0.0 0.0 0.00 0.00 0.00 91 1013.0
20260507152001 21 0.0 0.0 0.00 0.00 0.00 89 1013.0
20260507151001 21 0.0 0.0 0.00 0.00 0.00 87 1013.0
20260507150001 21 0.0 0.0 0.00 0.00 0.00 84 1013.2
20260507145001 21 0.0 0.0 0.00 0.00 0.00 84 1013.2
20260507144001 21 0.0 0.0 0.00 0.00 0.00 87 1013.3
20260507143001 21 0.0 0.0 0.00 0.00 0.00 80 1013.3
20260507142001 21 0.0 0.0 0.00 0.00 0.00 78 1013.4
20260507141001 21 0.0 0.0 0.00 0.00 0.00 83 1013.4
20260507140001 21 0.0 0.0 0.00 0.00 0.00 82 1013.5
20260507135001 21 0.0 0.0 0.00 0.00 0.00 86 1013.6
20260507134001 21 0.0 0.0 0.00 0.00 0.00 86 1013.9
20260507133001 21 0.0 0.0 0.00 0.00 0.00 84 1014.0
20260507132001 21 0.0 0.0 0.00 0.00 0.00 84 1014.1
20260507131001 21 0.0 0.0 0.00 0.00 0.00 81 1014.1
20260507130001 21 0.0 0.0 0.00 0.00 0.00 82 1014.3
20260507125001 21 0.0 0.0 0.00 0.00 0.00 77 1014.3
20260507124001 21 0.0 0.0 0.00 0.00 0.00 81 1014.4
20260507123001 21 0.0 0.0 0.00 0.00 0.00 88 1014.3
20260507122001 21 0.0 0.0 0.00 0.00 0.00 79 1014.3
20260507121001 21 0.0 0.0 0.00 0.00 0.00 77 1014.3
20260507120001 21 0.0 0.0 0.00 0.00 0.00 73 1014.2
20260507115001 21 0.0 0.0 0.00 0.00 0.00 78 1014.2
20260507114001 21 0.0 0.0 0.00 0.00 0.00 73 1014.3
20260507113001 21 0.0 0.0 0.00 0.00 0.00 76 1014.4
20260507112001 21 0.0 0.0 0.00 0.00 0.00 75 1014.5
20260507111001 20 0.0 0.0 0.00 0.00 0.00 76 1014.6
20260507110001 21 0.0 0.0 0.00 0.00 0.00 83 1014.7
20260507105001 21 0.0 0.0 0.00 0.00 0.00 85 1014.8
20260507104001 20 0.0 0.0 0.00 0.00 0.00 79 1014.9
20260507103001 20 0.0 0.0 0.00 0.00 0.00 85 1014.9
20260507102001 20 0.0 0.0 0.00 0.00 0.00 88 1015.0
20260507101001 20 0.0 0.0 0.00 0.00 0.00 87 1014.8
20260507100001 20 0.0 0.0 0.00 0.00 0.00 89 1014.9
20260507095001 20 0.0 0.0 0.00 0.00 0.00 85 1014.9
20260507094001 20 0.0 0.0 0.00 0.00 0.00 85 1014.8
20260507093001 20 0.0 0.0 0.00 0.00 0.00 84 1014.6
20260507092004 21 0.0 0.0 0.00 0.00 0.00 82 1014.5
20260507091001 21 0.0 0.0 0.00 0.00 0.00 78 1014.5
20260507090001 21 0.0 0.0 0.00 0.00 0.00 79 1014.5
20260507085001 21 0.0 0.0 0.00 0.00 0.00 81 1014.5
20260507084001 21 0.0 0.0 0.00 0.00 0.00 82 1014.5
20260507083001 21 0.0 0.0 0.00 0.00 0.00 84 1014.5
20260507082000 21 0.0 0.0 0.00 0.00 0.00 89 1014.5
20260507081001 21 0.0 0.0 0.00 0.00 0.00 85 1014.4
20260507080001 21 0.0 0.0 0.00 0.00 0.00 82 1014.5
20260507075001 21 0.0 0.0 0.00 0.00 0.00 87 1014.5
20260507074001 21 0.0 0.0 0.00 0.00 0.00 89 1014.6
20260507073000 21 0.0 0.0 0.00 0.00 0.00 91 1014.6
20260507072001 20 0.0 0.0 0.00 0.00 0.00 98 1014.7
20260507071000 20 0.0 0.0 0.00 0.00 0.00 10 1014.6
20260507070001 20 0.0 0.0 0.00 0.00 0.00 10 1014.6
20260507065001 19 0.0 0.0 0.00 0.00 0.00 10 1014.5
20260507064000 20 0.0 0.0 0.00 0.00 0.00 10 1014.4
20260507063001 19 0.0 0.0 0.00 0.00 0.00 10 1014.4
20260507062000 18 0.0 0.0 0.00 0.00 0.00 10 1014.3
20260507061000 19 0.0 0.0 0.00 0.00 0.00 10 1014.2
20260507060001 18 0.0 0.0 0.00 0.00 0.00 10 1014.2
20260507055001 18 0.0 0.0 0.00 0.00 0.00 10 1014.1
20260507054000 17 0.0 0.0 0.00 0.00 0.00 10 1014.0
20260507053001 17 0.0 0.0 0.00 0.00 0.00 10 1014.0
20260507052000 17 0.0 0.0 0.00 0.00 0.00 10 1013.9
20260507051001 17 0.0 0.0 0.00 0.00 0.00 10 1013.9
20260507050000 16 0.0 0.0 0.00 0.00 0.00 10 1013.6
20260507045001 16 0.0 0.0 0.00 0.00 0.00 10 1013.6
20260507044001 16 0.0 0.0 0.00 0.00 0.00 10 1013.5
20260507043001 16 0.0 0.0 0.00 0.00 0.00 10 1013.4
20260507042000 16 0.0 0.0 0.00 0.00 0.00 10 1013.5
20260507041000 16 0.0 0.0 0.00 0.00 0.00 10 1013.4
20260507040000 16 0.0 0.0 0.00 0.00 0.00 10 1013.4
20260507035000 16 0.0 0.0 0.00 0.00 0.00 10 1013.3
20260507034000 16 0.0 0.0 0.00 0.00 0.00 10 1013.2
20260507033001 16 0.0 0.0 0.00 0.00 0.00 10 1013.2
20260507032000 16 0.0 0.0 0.00 0.00 0.00 10 1013.3
20260507031001 16 0.0 0.0 0.00 0.00 0.00 10 1013.4
20260507030000 16 0.0 0.0 0.00 0.00 0.00 10 1013.3
20260507025000 16 0.0 0.0 0.00 0.00 0.00 10 1013.4